Date String (YYYY-MM-DD hh:mm:ss) UTC,Instrument flags,Ambient pressure (hPa),Sample flow (lpm),Bypass flow (lpm),Sample temperature (°C),Ambient temperature (°C),ASC tube jacket temperature (°C),LED temperature (°C),Box temperature (°C),Sample RH (%),Span deviation,Mass concentration (μg/m³),Mass concentration (μg/m³),Mass concentration (μg/m³)
DateTimeUTC,F1_M11,P_M11,Q1_M11,Q2_M11,T1_M11,T2_M11,T3_M11,T4_M11,T5_M11,U1_M11,ZSPAN_M11,X0_M11,X2_M11,X1_M11
2022-02-08 15:00:00,,0828.0,5.00,0.00,22.7,22.1,00.0,31.6,24.5,06.2,0000.0,0002.59,0000.94,0000.62
2022-02-08 15:01:00,,0828.1,5.02,0.00,22.7,22.1,00.0,31.6,24.5,06.3,0000.0,0002.68,0000.95,0000.60
2022-02-08 15:02:00,,0828.4,5.00,0.00,22.7,22.1,00.0,31.6,24.5,06.3,0000.0,0002.64,0000.93,0000.59
2022-02-08 15:03:00,,0828.4,4.99,0.00,22.7,22.1,00.0,31.6,24.5,06.4,0000.0,0002.49,0000.90,0000.59
2022-02-08 15:04:00,,0828.2,5.00,0.00,22.7,22.1,00.0,31.6,24.5,06.0,0000.0,0002.51,0000.93,0000.59
2022-02-08 15:05:00,,0828.1,5.00,0.00,22.7,22.1,00.0,31.6,24.5,05.7,0000.0,0002.53,0000.94,0000.59
2022-02-08 15:06:00,,0828.2,5.01,0.00,22.7,22.1,00.0,31.6,24.5,05.8,0000.0,0002.52,0000.91,0000.58
2022-02-08 15:07:00,,0828.4,5.00,0.00,22.7,22.2,00.0,31.6,24.5,05.8,0000.0,0002.36,0000.90,0000.57
2022-02-08 15:08:00,,0828.6,5.01,0.00,22.7,22.2,00.0,31.6,24.5,06.0,0000.0,0002.26,0000.88,0000.57
2022-02-08 15:09:00,,0828.9,5.01,0.00,22.7,22.2,00.0,31.6,24.6,06.3,0000.0,0002.31,0000.88,0000.57
2022-02-08 15:10:00,,0828.8,5.00,0.00,22.8,22.2,00.0,31.6,24.6,06.4,0000.0,0002.32,0000.89,0000.58
2022-02-08 15:11:00,,0828.6,5.00,0.00,22.8,22.2,00.0,31.6,24.6,06.3,0000.0,0002.63,0000.89,0000.59
2022-02-08 15:12:00,,0828.5,4.98,0.00,22.8,22.2,00.0,31.6,24.5,06.2,0000.0,0002.71,0000.88,0000.59
2022-02-08 15:13:00,,0828.7,5.00,0.00,22.8,22.2,00.0,31.7,24.5,06.2,0000.0,0002.76,0000.88,0000.60
2022-02-08 15:14:00,,0829.0,5.00,0.00,22.8,22.2,00.0,31.7,24.6,06.3,0000.0,0002.68,0000.86,0000.60
2022-02-08 15:15:00,,0829.0,5.00,0.00,22.8,22.2,00.0,31.7,24.6,06.3,0000.0,0002.77,0000.85,0000.60
2022-02-08 15:16:00,,0829.0,5.00,0.00,22.8,22.2,00.0,31.7,24.6,06.4,0000.0,0004.38,0000.84,0000.61
2022-02-08 15:17:00,,0829.0,5.00,0.00,22.8,22.2,00.0,31.7,24.7,06.6,0000.0,0004.15,0000.84,0000.61
2022-02-08 15:18:00,,0828.6,5.00,0.00,22.8,22.3,00.0,31.7,24.7,06.8,0000.0,0003.68,0000.85,0000.61
2022-02-08 15:19:00,,0828.8,5.01,0.00,22.8,22.3,00.0,31.7,24.7,06.8,0000.0,0003.67,0000.85,0000.61
2022-02-08 15:20:00,,0828.8,4.99,0.00,22.9,22.3,00.0,31.7,24.7,06.9,0000.0,0003.54,0000.84,0000.62
2022-02-08 15:21:00,,0828.8,4.99,0.00,22.9,22.3,00.0,31.7,24.7,06.5,0000.0,0003.56,0000.84,0000.61
2022-02-08 15:22:00,,0828.7,5.02,0.00,22.9,22.4,00.0,31.8,24.7,06.6,0000.0,0003.35,0000.85,0000.61
2022-02-08 15:23:00,,0828.7,4.99,0.00,22.9,22.4,00.0,31.8,24.7,07.0,0000.0,0003.15,0000.83,0000.62
2022-02-08 15:24:00,,0828.8,4.99,0.00,22.9,22.4,00.0,31.8,24.7,06.2,0000.0,0003.08,0000.83,0000.62
2022-02-08 15:25:00,,0828.7,5.02,0.00,22.9,22.3,00.0,31.8,24.7,06.2,0000.0,0003.19,0000.88,0000.62
2022-02-08 15:26:00,,0829.0,4.99,0.00,23.0,22.3,00.0,31.8,24.7,06.1,0000.0,0003.35,0000.90,0000.62
2022-02-08 15:27:00,,0828.7,5.01,0.00,23.0,22.3,00.0,31.8,24.8,05.9,0000.0,0001.86,0000.95,0000.61
2022-02-08 15:28:00,,0828.7,4.99,0.00,23.0,22.3,00.0,31.8,24.8,05.6,0000.0,0001.89,0000.96,0000.61
2022-02-08 15:29:00,,0828.7,5.00,0.00,23.0,22.3,00.0,31.9,24.8,05.7,0000.0,0001.97,0000.99,0000.62
2022-02-08 15:30:00,,0828.6,5.00,0.00,23.0,22.3,00.0,31.9,24.8,05.9,0000.0,0002.02,0000.99,0000.61
2022-02-08 15:31:00,,0828.8,5.01,0.00,23.0,22.3,00.0,31.9,24.8,05.6,0000.0,0002.13,0001.01,0000.61
2022-02-08 15:32:00,,0828.9,4.99,0.00,23.0,22.2,00.0,31.9,24.7,05.7,0000.0,0002.21,0001.02,0000.60
2022-02-08 15:33:00,,0828.6,5.01,0.00,23.0,22.2,00.0,31.9,24.7,05.9,0000.0,0002.17,0001.01,0000.60
2022-02-08 15:34:00,,0828.8,4.99,0.00,23.0,22.2,00.0,31.9,24.8,05.7,0000.0,0002.18,0001.01,0000.60
2022-02-08 15:35:00,,0828.7,5.00,0.00,23.0,22.2,00.0,31.9,24.8,05.9,0000.0,0002.20,0001.03,0000.60
2022-02-08 15:36:00,,0828.6,5.00,0.00,23.0,22.2,00.0,31.9,24.8,06.0,0000.0,0002.13,0000.99,0000.61
2022-02-08 15:37:00,,0828.8,4.99,0.00,23.0,22.2,00.0,31.9,24.8,06.1,0000.0,0002.01,0001.00,0000.61
2022-02-08 15:38:00,,0828.7,5.00,0.00,23.0,22.2,00.0,31.9,24.7,06.2,0000.0,0001.86,0000.97,0000.61
2022-02-08 15:39:00,,0828.4,5.00,0.00,23.0,22.2,00.0,31.9,24.7,06.2,0000.0,0001.95,0000.99,0000.60
2022-02-08 15:40:00,,0828.9,5.00,0.00,23.0,22.1,00.0,31.9,24.7,05.9,0000.0,0001.82,0000.95,0000.61
2022-02-08 15:41:00,,0828.8,5.00,0.00,22.9,22.1,00.0,31.9,24.7,06.3,0000.0,0001.81,0000.95,0000.60
2022-02-08 15:42:00,,0828.8,5.01,0.00,22.9,22.0,00.0,31.9,24.6,05.7,0000.0,0001.78,0000.95,0000.61
2022-02-08 15:43:00,,0828.9,5.00,0.00,22.9,22.0,00.0,31.9,24.7,05.6,0000.0,0001.68,0000.92,0000.61
2022-02-08 15:44:00,,0829.1,4.99,0.00,22.9,22.0,00.0,31.9,24.6,06.0,0000.0,0001.54,0000.89,0000.61
2022-02-08 15:45:00,,0828.8,5.01,0.00,22.9,22.0,00.0,31.9,24.6,06.2,0000.0,0001.59,0000.91,0000.61
2022-02-08 15:46:00,,0828.8,5.00,0.00,22.9,21.9,00.0,31.9,24.5,06.0,0000.0,0001.62,0000.91,0000.60
2022-02-08 15:47:00,,0828.8,5.00,0.00,22.9,21.9,00.0,31.9,24.5,06.1,0000.0,0001.60,0000.91,0000.59
2022-02-08 15:48:00,,0828.7,4.99,0.00,22.9,21.9,00.0,31.9,24.5,06.2,0000.0,0001.63,0000.88,0000.59
2022-02-08 15:49:00,,0828.7,5.01,0.00,22.9,21.9,00.0,31.9,24.5,06.4,0000.0,0002.30,0000.86,0000.59
2022-02-08 15:50:00,,0828.6,5.01,0.00,22.8,21.9,00.0,31.9,24.5,06.3,0000.0,0002.25,0000.86,0000.60
2022-02-08 15:51:00,,0828.7,5.00,0.00,22.8,21.9,00.0,31.9,24.5,06.1,0000.0,0002.34,0000.86,0000.60
2022-02-08 15:52:00,,0828.6,5.00,0.00,22.8,21.9,00.0,31.9,24.5,06.1,0000.0,0002.38,0000.87,0000.60
2022-02-08 15:53:00,,0828.9,5.01,0.00,22.8,21.9,00.0,31.9,24.5,05.8,0000.0,0002.38,0000.87,0000.60
2022-02-08 15:54:00,,0828.6,4.98,0.00,22.8,21.9,00.0,31.9,24.5,06.0,0000.0,0002.44,0000.91,0000.60
2022-02-08 15:55:00,,0828.6,5.02,0.00,22.8,21.9,00.0,31.9,24.6,06.4,0000.0,0002.52,0000.94,0000.60
2022-02-08 15:56:00,,0828.5,4.98,0.00,22.9,21.9,00.0,31.9,24.6,06.2,0000.0,0002.52,0000.95,0000.60
2022-02-08 15:57:00,,0828.8,5.01,0.00,22.9,22.0,00.0,31.9,24.6,06.0,0000.0,0002.69,0000.96,0000.61
2022-02-08 15:58:00,,0828.8,5.00,0.00,22.8,22.0,00.0,31.9,24.6,06.3,0000.0,0002.77,0000.96,0000.61
2022-02-08 15:59:00,,0828.7,4.99,0.00,22.8,21.9,00.0,31.8,24.5,06.4,0000.0,0002.77,0000.98,0000.61
